Weather in Pershotravensk

Ukraine / Zhytomyr Region     50°12′02″N   27°37′59″E
temp.,
°C
wind,
m/s
gust,
m/s
humid.,
%
clouds,
%
prec.,
mm/h
press.,
hPa
HPBL,
m
7 may, fri
fri700:00+7ssw356768 0.0 101380
03:00+5ssw388223 0.0 1013152
06:00+5s3589100 0.0 1011102
09:00+10ssw4970100 0.0 1011426
12:00+13s61265100 0.1 10081730
15:00+14sw71170100 0.8 1007989
18:00+13sw4776100 0.1 1006796
21:00+11sw2289100 1.0 100628
8 may, sat
sat800:00+9w2495100 0.1 100771
03:00+9wnw51095100 0.9 1008369
06:00+6nw71293100 2.0 1010937
09:00+5w7119197 3.8 1012912
12:00+4wnw71296100 0.3 1015865
15:00+8nw81369100 0.5 10161558
18:00+9nw696663 0.3 10171493
21:00+4nw37825 0.4 1020150
9 may, sun
sun900:00+2wnw35924 0.0 102285
03:00+1w34940 0.0 102371
06:00+1w35941 0.0 102595
09:00+7wnw35712 0.0 1026535
12:00+12nw34475 0.0 10261517
15:00+13wnw244020 0.0 10261991
18:00+14wsw234359 0.0 10251756
21:00+8sse22622 0.0 102711
10 may, mon
mon1000:00+6sse35655 0.0 102867
03:00+5sse36705 0.0 102897
06:00+4sse357211 0.0 102882
09:00+11se475632 0.0 1028402
12:00+15sse67455 0.0 10281325
15:00+17sse56420 0.0 10261453
18:00+17se46525 0.0 10251288
21:00+10se39774 0.0 1026147
11 may, tue
tue1100:00+8se411785 0.0 1027190
03:00+7se412820 0.0 1027231
06:00+6se39820 0.0 1027181
09:00+12se58580 0.0 1026486
12:00+16ese56430 0.0 10251114
15:00+18ese45390 0.0 10231290
18:00+18ese46510 0.0 10221148
21:00+11e39790 0.0 1022162